Farmville, Virginia, United States (23901)
Lat: 37.30N, Lon: 78.39W
Wx Zone: VAZ060
Local Info
Past Weather Observations for Today

NOTE: This archive is for the closest National Weather Service station to Farmville. Information may differ from the station used for current weather conditions.

Click here for Long-term Archive

Time Weather Temperature Dewpoint Humidity Pressure Winds Precip Visibility
22:15
Clear
70°F / 21°C 70°F / 21°C 100% 30.01 in
(1016 mb)
Calm - 10SM
21:55
Clear
70°F / 21°C 70°F / 21°C 100% 30.01 in
(1016 mb)
Calm - 10SM
21:35
Clear
70°F / 21°C 70°F / 21°C 100% 30.01 in
(1016 mb)
Calm - 10SM
21:15
Clear
70°F / 21°C 70°F / 21°C 100% 30.01 in
(1016 mb)
Calm - 10SM
20:55
Clear
70°F / 21°C 70°F / 21°C 100% 29.98 in
(1015 mb)
Calm - 10SM
20:35
Clear
72°F / 22°C 72°F / 22°C 100% 29.98 in
(1015 mb)
Calm - 10SM
20:15
Clear
73°F / 23°C 72°F / 22°C 94% 29.98 in
(1015 mb)
Calm - 10SM
19:55
Partly Cloudy
75°F / 24°C 72°F / 22°C 89% 29.98 in
(1015 mb)
Calm - 10SM
19:35
Partly Cloudy
75°F / 24°C 72°F / 22°C 89% 29.98 in
(1015 mb)
Calm - 10SM
19:15
Clear
77°F / 25°C 70°F / 21°C 79% 29.95 in
(1014 mb)
Calm - 10SM
16:55
Clear
86°F / 30°C 66°F / 19°C 52% 29.95 in
(1014 mb)
E 5.8 mph
(E 9 kph)
- 10SM
16:35
Partly Cloudy
84°F / 29°C 66°F / 19°C 55% 29.95 in
(1014 mb)
E 6.9 mph
(E 11 kph)
- 10SM
16:15
Clear
84°F / 29°C 68°F / 20°C 58% 29.95 in
(1014 mb)
ESE 3.5 mph
(ESE 6 kph)
- 10SM
15:55
Mostly Cloudy
84°F / 29°C 68°F / 20°C 58% 29.95 in
(1014 mb)
ENE 5.8 mph
(ENE 9 kph)
- 10SM
12:35
Mostly Cloudy
N/A N/A N/A 29.98 in
(1015 mb)
ENE 5.8 mph
(ENE 9 kph)
- 10SM
12:15
Partly Cloudy
86°F / 30°C 68°F / 20°C 55% 29.98 in
(1015 mb)
ESE 3.5 mph
(ESE 6 kph)
- 10SM
11:55
Mostly Cloudy
82°F / 28°C 68°F / 20°C 62% 29.98 in
(1015 mb)
NNE 5.8 mph
(NNE 9 kph)
- 10SM
11:35
Mostly Cloudy
82°F / 28°C 68°F / 20°C 62% 29.98 in
(1015 mb)
NNE 3.5 mph
(NNE 6 kph)
- 10SM
11:15
Mostly Cloudy
82°F / 28°C 68°F / 20°C 62% 30.01 in
(1016 mb)
SE 3.5 mph
(SE 6 kph)
- 10SM
10:55
Mostly Cloudy
81°F / 27°C 68°F / 20°C 66% 30.01 in
(1016 mb)
Calm - 10SM
10:35
Mostly Cloudy
81°F / 27°C 70°F / 21°C 70% 30.01 in
(1016 mb)
Calm - 10SM
10:15
Mostly Cloudy
79°F / 26°C 72°F / 22°C 79% 30.01 in
(1016 mb)
SE 3.5 mph
(SE 6 kph)
- 10SM
09:55
Mostly Cloudy
77°F / 25°C 72°F / 22°C 83% 30.01 in
(1016 mb)
NE 4.6 mph
(NE 7 kph)
- 10SM
09:35
Partly Cloudy
75°F / 24°C 72°F / 22°C 89% 30.01 in
(1016 mb)
ENE 4.6 mph
(ENE 7 kph)
- 10SM
09:15
Overcast
75°F / 24°C 72°F / 22°C 89% 30.01 in
(1016 mb)
E 4.6 mph
(E 7 kph)
- 10SM
08:55
Overcast
72°F / 22°C 72°F / 22°C 100% 30.01 in
(1016 mb)
Calm - 10SM
08:35
Overcast
72°F / 22°C 72°F / 22°C 100% 30.01 in
(1016 mb)
Calm - 10SM
08:15
Overcast
72°F / 22°C 72°F / 22°C 100% 30.01 in
(1016 mb)
Calm - 10SM
07:55
Overcast
70°F / 21°C 70°F / 21°C 100% 30.01 in
(1016 mb)
Calm - 7SM
07:35
Overcast
Fog And Mist
70°F / 21°C 70°F / 21°C 100% 30.01 in
(1016 mb)
Calm - 4SM
07:15
Overcast
Fog And Mist
70°F / 21°C 70°F / 21°C 100% 29.98 in
(1015 mb)
Calm - 3/4SM
06:55
Overcast
Fog
70°F / 21°C 70°F / 21°C 100% 29.98 in
(1015 mb)
Calm - 1/2SM
06:35
Overcast
Fog
68°F / 20°C 68°F / 20°C 100% 29.98 in
(1015 mb)
Calm - 1/4SM
06:15
Overcast
Fog
68°F / 20°C 68°F / 20°C 100% 29.98 in
(1015 mb)
Calm - 1/4SM
05:55
Overcast
Fog
68°F / 20°C 68°F / 20°C 100% 29.98 in
(1015 mb)
Calm - 1/4SM
05:35
Overcast
Fog
68°F / 20°C 68°F / 20°C 100% 29.98 in
(1015 mb)
Calm - M1/4SM
05:15
Overcast
Fog
68°F / 20°C 68°F / 20°C 100% 29.95 in
(1014 mb)
Calm - 1/4SM
04:55
Overcast
Fog
68°F / 20°C 68°F / 20°C 100% 29.95 in
(1014 mb)
Calm - 1/2SM
04:35
Overcast
Fog
68°F / 20°C 68°F / 20°C 100% 29.95 in
(1014 mb)
Calm - 1/2SM
04:15
Overcast
Fog
68°F / 20°C 68°F / 20°C 100% 29.95 in
(1014 mb)
Calm - 1/2SM
03:55
Overcast
Fog
68°F / 20°C 68°F / 20°C 100% 29.95 in
(1014 mb)
Calm - 1/2SM
03:35
Overcast
Fog
68°F / 20°C 68°F / 20°C 100% 29.95 in
(1014 mb)
Calm - 1/2SM
03:15
Overcast
Fog And Mist
68°F / 20°C 68°F / 20°C 100% 29.95 in
(1014 mb)
Calm - 3/4SM
02:55
Overcast
Fog And Mist
68°F / 20°C 68°F / 20°C 100% 29.95 in
(1014 mb)
Calm - 3/4SM
02:35
Overcast
Fog
70°F / 21°C 70°F / 21°C 100% 29.95 in
(1014 mb)
Calm - 1/2SM
02:15
Overcast
Fog
70°F / 21°C 70°F / 21°C 100% 29.95 in
(1014 mb)
Calm - 1/2SM
01:55
Overcast
Fog And Mist
70°F / 21°C 70°F / 21°C 100% 29.95 in
(1014 mb)
Calm - 1 1/4SM
01:35
Overcast
Fog And Mist
68°F / 20°C 68°F / 20°C 100% 29.95 in
(1014 mb)
Calm - 5SM
01:15
Overcast
68°F / 20°C 68°F / 20°C 100% 29.95 in
(1014 mb)
Calm - 7SM
00:55
Overcast
68°F / 20°C 68°F / 20°C 100% 29.98 in
(1015 mb)
Calm - 10SM
00:35
Overcast
68°F / 20°C 68°F / 20°C 100% 29.98 in
(1015 mb)
Calm - 10SM
00:15
Overcast
68°F / 20°C 68°F / 20°C 100% 29.98 in
(1015 mb)
Calm - 10SM
Time Weather Temperature Dewpoint Humidity Pressure Winds Precip Visibility


Weather for websites

WeatherForYou.com, LLC is not responsible for any damages or problems caused by this service. Current weather conditions are obtained from the closest station including government and personal stations which may have varying degrees of accuracy. Weather forecasts are derived from the NOAA NDFD. Like all things, this site belongs to Jesus Christ... He just trusts us to maintain it. If you have any questions or comments email webmaster@weatherforyou.com

Copyright © 2016, WeatherForYou.com LLC. All rights reserved.